[[{"header":{"parameterUnit":"m.s-1","parameterCategory":2,"la1":30.2991,"la2":30.254,"lo1":-89.0895,"lo2":-89.0444,"dy":0.0017,"dx":0.0017,"nx":28,"ny":28,"refTime":"2023-08-14T09:00:00:Z","depth":"0","parameterNumber":2,"parameterNumberName":"U-component_of_CURRENTS"},"data":[0,0,0,0,0,0,0,0,0,0,0,0,0,0,0,0,0,0,0,0,0,0,0,0,0,0,0,0,0,0,0,0,0,0,0,0,0,0,0,0,0,0,0,0,0,0,0,0,0,0,0,0,0,0,0,0,0,0,0.4593,0.4593,0,0.4555,0.4554,0.4552,0.4339,0.4335,0.4331,0.4328,0.422,0.422,0.4221,0,0,0,0,0,0,0,0,0,0,0,0,0,0.4425,0.4428,0.4592,0.4593,0.4594,0.4556,0.4554,0.4552,0.4339,0.4335,0.433,0.4326,0.4219,0.422,0.4221,0,0,0,0,0,0,0,0,0,0,0,0,0,0.4439,0.4429,0.4592,0.4495,0.4487,0.4556,0.4554,0.4551,0.434,0.4335,0.4329,0.4324,0.4219,0.422,0.4221,0.4337,0,0,0.4223,0.4224,0,0,0,0,0,0,0,0,0.4439,0.4444,0.4509,0.4502,0.4494,0.446,0.4456,0.4481,0.4342,0.438,0.4328,0.4321,0.4308,0.4301,0.4285,0.4332,0.4327,0.4223,0.4224,0.4224,0.4225,0,0,0,0,0,0,0,0.4438,0.4444,0.4562,0.4511,0.4502,0.4436,0.4431,0.4458,0.4362,0.4376,0.4364,0.4387,0.43,0.4285,0.4281,0.4326,0.4223,0.4224,0.4225,0.4225,0.4438,0.4443,0,0,0,0,0,0,0.4484,0.4445,0.4563,0.4562,0.447,0.4445,0.4438,0.4463,0.4363,0.4347,0.4392,0.4377,0.4286,0.428,0.4277,0.4367,0.4224,0.4225,0.4226,0.4433,0.4439,0.4444,0,0,0,0,0,0,0.4481,0.4496,0.4565,0.4513,0.452,0.4456,0.4485,0.4466,0.4438,0.4379,0.4356,0.4383,0.4281,0.4275,0.4308,0.4362,0.4226,0.4226,0.4427,0.4434,0.4442,0.4575,0,0,0,0,0,0,0.4476,0.4494,0.4517,0.4518,0.4525,0.4643,0.4491,0.447,0.4469,0.4448,0.4366,0.4349,0.4277,0.4308,0.4309,0.4361,0.4227,0.442,0.443,0.4439,0.4564,0.4586,0.4605,0,0,0,0,0,0.447,0.4567,0.4519,0.4533,0.4563,0.465,0.4647,0.4569,0.4475,0.451,0.4433,0.4351,0.4369,0.4314,0.4314,0.4366,0.4415,0.4427,0.4438,0.4554,0.4582,0.4604,0,0,0,0,0,0,0.4557,0.4556,0.4502,0.4603,0.463,0.4619,0.4662,0.4597,0.4563,0.4532,0.4421,0.4405,0.4464,0.4423,0.4364,0.4465,0.4381,0.4393,0.4469,0.4494,0.4514,0.448,0.4228,0,0,0,0,0,0.4582,0.4609,0.463,0.4709,0.4737,0.4692,0.4709,0.4668,0.4651,0.4625,0.4565,0.4521,0.4525,0.4508,0.4523,0.458,0.4568,0.462,0.464,0.4657,0.4637,0.4709,0.4733,0.4482,0.4482,0.4482,0,0,0.4624,0.4645,0.465,0.4721,0.4727,0.475,0.4685,0.4756,0.4727,0.4632,0.4598,0.4615,0.4569,0.4621,0.4642,0.4576,0.4735,0.4672,0.4686,0.4655,0.4724,0.4747,0.4768,0.449,0.4489,0.4488,0,0,0.4728,0.4765,0.4791,0.4822,0.4869,0.485,0.4876,0.4883,0.4842,0.4863,0.4782,0.4835,0.4814,0.4796,0.4776,0.4938,0.4866,0.4949,0.4987,0.506,0.5079,0.5096,0.5146,0.5166,0.4927,0.4927,0.4928,0,0.4756,0.48,0.4831,0.4873,0.4879,0.4888,0.4905,0.4904,0.4903,0.489,0.4871,0.4898,0.489,0.4914,0.496,0.4979,0.4992,0.4882,0.5081,0.5097,0.5112,0.5159,0.518,0.4935,0.4934,0.4933,0.4933,0,0.4837,0.4872,0.4934,0.4921,0.4953,0.5019,0.5012,0.503,0.4996,0.4977,0.5044,0.5075,0.5064,0.5112,0.5067,0.5174,0.5145,0.5121,0.5002,0.5144,0.5187,0.5206,0.4946,0.4944,0.4941,0.4939,0,0,0.4848,0.4944,0.4947,0.4925,0.4975,0.5,0.5012,0.5018,0.4986,0.5064,0.505,0.5147,0.5183,0.517,0.5181,0.525,0.5405,0.5221,0.5222,0.5242,0.5551,0.5274,0.5267,0.5405,0.5409,0.5412,0.5549,0,0.4861,0.4924,0.4959,0.4966,0.4983,0.4994,0.498,0.4991,0.5007,0.5026,0.512,0.5147,0.5192,0.5209,0.5304,0.5375,0.5454,0.5368,0.5433,0.5435,0.5146,0.5279,0.5033,0.511,0.5566,0.5569,0.5572,0,0.4865,0.4902,0.4921,0.493,0.4935,0.4925,0.4889,0.489,0.4945,0.497,0.5062,0.5121,0.5256,0.5275,0.5481,0.5418,0.5494,0.5561,0.5567,0.5256,0.5189,0.5039,0.5125,0.4987,0.5599,0.5597,0.5595,0,0.4783,0.4852,0.4848,0.4855,0.4882,0.4857,0.485,0.4868,0.4856,0.4942,0.4964,0.5134,0.5196,0.5365,0.5517,0.5502,0.5729,0.5718,0.555,0.5532,0.5302,0.5254,0.522,0.5865,0.5865,0.5865,0.5864,0,0.4754,0.4748,0.4805,0.4794,0.4752,0.4785,0.4738,0.4757,0.4795,0.4785,0.4931,0.4961,0.5221,0.5368,0.5527,0.558,0.5743,0.5563,0.5547,0.5343,0.5299,0.5144,0.5191,0.587,0.5869,0.5868,0.5867,0,0.4665,0.4718,0.4704,0.4722,0.4715,0.4672,0.4658,0.4631,0.4679,0.4677,0.4706,0.4858,0.5019,0.5261,0.5516,0.5517,0.5482,0.5629,0.5351,0.5293,0.4883,0.4949,0.4698,0.459,0.543,0.5424,0.5419,0,0.4635,0.462,0.4621,0.46,0.4605,0.4564,0.4526,0.456,0.4539,0.4588,0.4582,0.4726,0.4783,0.5034,0.5123,0.5303,0.5288,0.5103,0.5001,0.4807,0.4878,0.4713,0.4634,0.481,0.48,0.4792,0.4786,0,0.4549,0.4542,0.4531,0.448,0.4439,0.4387,0.4349,0.4318,0.434,0.4336,0.4322,0.437,0.4527,0.4538,0.4704,0.4797,0.4805,0.4927,0.4844,0.4458,0.4172,0.4075,0.478,0.4715,0.4722,0.4727,0.4731,0.4734,0.4468,0.4429,0.4395,0.4326,0.4279,0.4174,0.4068,0.4054,0.3975,0.3891,0.4038,0.3973,0.4071,0.4219,0.4267,0.4112,0.4251,0.4021,0.4152,0.4022,0.3775,0.4261,0.4074,0.4077,0.408,0.4082,0.4085,0,0.4324,0.429,0.4238,0.4118,0.3984,0.4015,0.3902,0.3759,0.3603,0.3599,0.3552,0.3491,0.346,0.3554,0.3513,0.3398,0.3286,0.3364,0.318,0.3176,0.3715,0.3536,0.3076,0.3077,0.3077,0.3077,0.3077,0.3077,0.4252,0.4138,0.4091,0.3831,0.3746,0.3491,0.3391,0.3236,0.3159,0.2945,0.2841,0.29,0.3085,0.3149,0.3026,0.2971,0.2855,0.2655,0.2772,0.3266,0.3339,0.3408,0.3242,0.2728,0.2728,0.1986,0.1982,0.1979]},{"header":{"parameterUnit":"m.s-1","parameterCategory":2,"la1":30.2991,"la2":30.254,"lo1":-89.0895,"lo2":-89.0444,"dy":0.0017,"dx":0.0017,"nx":28,"ny":28,"refTime":"2023-08-14T09:00:00:Z","depth":"0","parameterNumber":3,"parameterNumberName":"V-component_of_CURRENTS"},"data":[0,0,0,0,0,0,0,0,0,0,0,0,0,0,0,0,0,0,0,0,0,0,0,0,0,0,0,0,0,0,0,0,0,0,0,0,0,0,0,0,0,0,0,0,0,0,0,0,0,0,0,0,0,0,0,0,0,0,0.0714,0.0715,0,0.0795,0.0796,0.0796,0.0758,0.0756,0.0755,0.0753,0.0747,0.0749,0.075,0,0,0,0,0,0,0,0,0,0,0,0,0,0.0607,0.0608,0.0714,0.0715,0.0716,0.0795,0.0796,0.0797,0.0758,0.0756,0.0754,0.0752,0.0747,0.0749,0.0751,0,0,0,0,0,0,0,0,0,0,0,0,0,0.0664,0.0609,0.0714,0.0709,0.071,0.0795,0.0796,0.0797,0.0759,0.0756,0.0754,0.0751,0.0746,0.0749,0.0751,0.0819,0,0,0.0758,0.0759,0,0,0,0,0,0,0,0,0.0661,0.0668,0.0708,0.071,0.071,0.0766,0.0756,0.0801,0.076,0.0737,0.0753,0.075,0.075,0.0752,0.077,0.0818,0.0818,0.0758,0.0759,0.076,0.0761,0,0,0,0,0,0,0,0.0657,0.0665,0.0743,0.071,0.0711,0.0731,0.0735,0.0765,0.0754,0.0739,0.0737,0.0752,0.0749,0.0768,0.0769,0.0818,0.0758,0.076,0.0761,0.0762,0.0897,0.0899,0,0,0,0,0,0,0.0652,0.0661,0.074,0.0746,0.0682,0.0735,0.0739,0.0749,0.0755,0.0755,0.0754,0.075,0.0765,0.0767,0.0769,0.0862,0.076,0.0763,0.0764,0.0895,0.0898,0.09,0,0,0,0,0,0,0.0649,0.0658,0.0737,0.0707,0.0719,0.0739,0.075,0.0752,0.0773,0.0768,0.0765,0.0774,0.0763,0.0765,0.0796,0.0861,0.0764,0.0766,0.0893,0.0896,0.0899,0.1041,0,0,0,0,0,0,0.0646,0.0657,0.0672,0.0707,0.0721,0.0803,0.0753,0.0755,0.0788,0.0783,0.0785,0.0781,0.0761,0.0793,0.0798,0.0862,0.0767,0.089,0.0894,0.0898,0.1033,0.1049,0.1062,0,0,0,0,0,0.0642,0.0681,0.0672,0.0683,0.0738,0.0805,0.0815,0.0818,0.0791,0.0822,0.0808,0.0781,0.0822,0.0797,0.0803,0.0869,0.0888,0.0893,0.0898,0.1027,0.1046,0.1061,0,0,0,0,0,0,0.067,0.0683,0.0673,0.0721,0.0763,0.08,0.0842,0.0834,0.0853,0.0845,0.0815,0.0813,0.0866,0.0846,0.0818,0.0916,0.085,0.0857,0.0947,0.0964,0.0978,0.1018,0.0769,0,0,0,0,0,0.0678,0.0696,0.0726,0.0773,0.0796,0.0819,0.0849,0.0852,0.0871,0.0877,0.0873,0.0873,0.0897,0.0908,0.0924,0.0985,0.096,0.1027,0.1042,0.1054,0.109,0.109,0.1108,0.0917,0.0917,0.0916,0,0,0.0704,0.0718,0.0729,0.0778,0.0812,0.0877,0.0831,0.0893,0.094,0.0876,0.0936,0.0929,0.0923,0.0986,0.1008,0.0974,0.1094,0.106,0.1071,0.11,0.1097,0.1116,0.1133,0.092,0.0919,0.0919,0,0,0.079,0.0781,0.0832,0.0873,0.0928,0.0936,0.0956,0.0998,0.1005,0.1063,0.1029,0.1064,0.1089,0.1112,0.1122,0.1228,0.117,0.1219,0.1331,0.1331,0.1347,0.1361,0.1349,0.1361,0.1226,0.1226,0.1226,0,0.0833,0.0885,0.0867,0.0947,0.0988,0.0966,0.1049,0.1072,0.1113,0.1141,0.1095,0.1172,0.1163,0.1258,0.1287,0.1268,0.1238,0.1267,0.1351,0.1364,0.1375,0.136,0.1371,0.1233,0.1233,0.1232,0.1231,0,0.0956,0.1008,0.1055,0.1119,0.1161,0.1233,0.1252,0.1283,0.1272,0.1297,0.1376,0.1368,0.1413,0.1417,0.1387,0.1482,0.1424,0.1368,0.131,0.1404,0.1381,0.139,0.1244,0.1241,0.1239,0.1237,0,0,0.1024,0.1119,0.1135,0.1184,0.1252,0.1297,0.1372,0.1438,0.1495,0.1521,0.161,0.1655,0.1643,0.1655,0.1626,0.1634,0.1687,0.1543,0.1539,0.1537,0.1672,0.1578,0.1577,0.1627,0.163,0.1632,0.1621,0,0.113,0.1271,0.1293,0.1423,0.1488,0.1495,0.1564,0.1617,0.1642,0.1718,0.1731,0.1801,0.1734,0.1758,0.1766,0.1716,0.1717,0.1695,0.1578,0.1576,0.1485,0.1588,0.1466,0.1441,0.1629,0.1631,0.1632,0,0.1234,0.1303,0.1439,0.1541,0.1574,0.1642,0.1722,0.1791,0.188,0.1908,0.1982,0.1982,0.2051,0.1947,0.1933,0.1912,0.1816,0.1755,0.1751,0.1627,0.1499,0.1378,0.1449,0.1304,0.1644,0.1643,0.1642,0,0.1241,0.1401,0.1491,0.1536,0.1651,0.1705,0.1758,0.1849,0.1914,0.2034,0.2097,0.2161,0.2184,0.2119,0.2008,0.1966,0.1952,0.1868,0.1698,0.1688,0.1549,0.1523,0.1475,0.1844,0.1844,0.1844,0.1844,0,0.1319,0.1398,0.15,0.155,0.1658,0.1731,0.1853,0.1915,0.2033,0.2137,0.2193,0.227,0.2218,0.22,0.2079,0.1937,0.2005,0.1757,0.1697,0.1592,0.1571,0.1407,0.1375,0.1843,0.1843,0.1843,0.1843,0,0.132,0.1394,0.1499,0.1619,0.1661,0.1733,0.1884,0.1979,0.2081,0.2218,0.2263,0.2355,0.2333,0.226,0.2153,0.2012,0.1799,0.1804,0.1686,0.1614,0.1302,0.1283,0.1232,0.1186,0.1633,0.1631,0.1629,0,0.1341,0.1387,0.1513,0.1576,0.1637,0.1754,0.1843,0.1975,0.2082,0.2257,0.2328,0.2369,0.2393,0.2242,0.2004,0.1806,0.1714,0.1558,0.1463,0.1309,0.1245,0.1239,0.1206,0.133,0.1326,0.1323,0.132,0,0.1356,0.1386,0.1461,0.1567,0.167,0.1805,0.1942,0.203,0.2192,0.2309,0.2434,0.2467,0.2303,0.2068,0.1802,0.1639,0.1454,0.1479,0.1354,0.1059,0.1018,0.0935,0.1311,0.129,0.1293,0.1295,0.1297,0.1298,0.1348,0.1394,0.1468,0.158,0.1695,0.1843,0.1943,0.2098,0.2252,0.2417,0.2464,0.2484,0.2156,0.1767,0.1543,0.1075,0.1191,0.0918,0.0926,0.0947,0.0864,0.118,0.1063,0.1065,0.1066,0.1068,0.1069,0,0.1338,0.1398,0.1486,0.162,0.1729,0.1806,0.2,0.2093,0.2256,0.2389,0.248,0.2289,0.1853,0.1459,0.0862,0.0575,0.0506,0.0461,0.042,0.0427,0.0708,0.0649,0.0393,0.0394,0.0394,0.0394,0.0394,0.0394,0.1335,0.1403,0.1454,0.161,0.1713,0.1845,0.1953,0.2086,0.2192,0.2295,0.2287,0.2335,0.2103,0.1028,0.0356,0.0207,0.0096,0.0019,0.006,0.0208,0.0251,0.0292,0.0226,-0.0114,-0.0114,-0.0271,-0.0273,-0.0274]}],[{"header":{"parameterUnit":"m.s-1","parameterCategory":2,"la1":30.2991,"la2":30.254,"lo1":-89.0895,"lo2":-89.0444,"dy":0.0017,"dx":0.0017,"nx":28,"ny":28,"refTime":"2023-08-14T09:00:00:Z","depth":"2","parameterNumber":2,"parameterNumberName":"U-component_of_CURRENTS"},"data":[0,0,0,0,0,0,0,0,0,0,0,0,0,0,0,0,0,0,0,0,0,0,0,0,0,0,0,0,0,0,0,0,0,0,0,0,0,0,0,0,0,0,0,0,0,0,0,0,0,0,0,0,0,0,0,0,0,0,0.4145,0.4147,0,0.4198,0.4197,0.4197,0.4046,0.4043,0.4039,0.4036,0.3905,0.3905,0.3904,0,0,0,0,0,0,0,0,0,0,0,0,0,0.3856,0.3862,0.4145,0.4147,0.4149,0.4198,0.4197,0.4196,0.4047,0.4043,0.4039,0.4035,0.3905,0.3905,0.3904,0,0,0,0,0,0,0,0,0,0,0,0,0,0.394,0.3863,0.4144,0.409,0.4087,0.4198,0.4197,0.4196,0.4048,0.4043,0.4037,0.4033,0.3905,0.3905,0.3904,0.4002,0,0,0.3902,0.3902,0,0,0,0,0,0,0,0,0.3935,0.3949,0.4096,0.4094,0.4091,0.4122,0.4048,0.4127,0.4049,0.4048,0.4036,0.403,0.3974,0.3967,0.3971,0.3996,0.399,0.3902,0.3902,0.3902,0.3902,0,0,0,0,0,0,0,0.393,0.3945,0.4151,0.4099,0.4096,0.4044,0.4049,0.4062,0.4024,0.4047,0.404,0.407,0.3968,0.3972,0.3966,0.3988,0.3902,0.3902,0.3902,0.3901,0.4113,0.4118,0,0,0,0,0,0,0.3962,0.3942,0.415,0.4154,0.4015,0.4055,0.406,0.4106,0.4028,0.4017,0.4074,0.4063,0.3975,0.3967,0.3961,0.4063,0.3902,0.3901,0.3901,0.4107,0.4114,0.412,0,0,0,0,0,0,0.3955,0.398,0.4148,0.4058,0.4077,0.4067,0.4119,0.411,0.4122,0.4053,0.4033,0.4097,0.3971,0.3962,0.3948,0.4056,0.3901,0.3901,0.41,0.4109,0.4117,0.4273,0,0,0,0,0,0,0.3947,0.3978,0.4006,0.4062,0.4084,0.4228,0.4125,0.4115,0.4154,0.4139,0.4068,0.4049,0.3966,0.395,0.3948,0.4053,0.39,0.4092,0.4104,0.4114,0.426,0.4286,0.4308,0,0,0,0,0,0.3937,0.401,0.4007,0.4032,0.4129,0.4234,0.424,0.4203,0.4161,0.4189,0.4109,0.4051,0.4022,0.3952,0.3949,0.4056,0.4087,0.41,0.4113,0.4249,0.4281,0.4307,0,0,0,0,0,0,0.3953,0.4006,0.4002,0.4102,0.4169,0.4213,0.4269,0.4242,0.4212,0.4202,0.409,0.4068,0.4121,0.408,0.4006,0.4162,0.4064,0.4078,0.417,0.4198,0.4222,0.4181,0.39,0,0,0,0,0,0.3968,0.3998,0.4082,0.4167,0.4229,0.4258,0.4294,0.4285,0.4284,0.4267,0.4212,0.4182,0.4187,0.4172,0.4176,0.4237,0.4165,0.4324,0.4348,0.4367,0.4341,0.4338,0.4356,0.4164,0.4164,0.4164,0,0,0.4002,0.404,0.406,0.4165,0.4234,0.4274,0.4265,0.4373,0.4361,0.4265,0.4248,0.4271,0.4228,0.4286,0.4312,0.4248,0.4392,0.4384,0.44,0.4362,0.4353,0.437,0.4386,0.4173,0.4172,0.417,0,0,0.4041,0.4147,0.4148,0.4201,0.4306,0.4351,0.4392,0.4465,0.4465,0.4488,0.4428,0.4497,0.4481,0.4477,0.4466,0.4641,0.4533,0.4687,0.4747,0.4747,0.4759,0.477,0.4708,0.4711,0.468,0.4681,0.4681,0,0.4043,0.4106,0.4182,0.4194,0.4252,0.4381,0.4415,0.4453,0.4483,0.4503,0.4499,0.4565,0.4569,0.4609,0.4679,0.4693,0.4634,0.4626,0.4769,0.4778,0.4786,0.4719,0.4721,0.469,0.4689,0.4688,0.4687,0,0.4041,0.4107,0.4172,0.4195,0.4252,0.4376,0.444,0.4514,0.4577,0.4587,0.4698,0.4734,0.4755,0.4836,0.4796,0.4899,0.4821,0.4807,0.4673,0.4813,0.4736,0.4735,0.4703,0.47,0.4697,0.4695,0,0,0.3991,0.4126,0.4144,0.4152,0.429,0.4333,0.4413,0.4519,0.4534,0.4657,0.4684,0.4826,0.4896,0.4896,0.4933,0.4964,0.5022,0.4914,0.491,0.4809,0.4958,0.4563,0.4522,0.5013,0.5014,0.5015,0.488,0,0.3977,0.3999,0.4082,0.4131,0.4171,0.432,0.4346,0.4425,0.4535,0.4596,0.4754,0.4808,0.4897,0.4949,0.5012,0.5029,0.5025,0.5055,0.4872,0.4866,0.4462,0.451,0.4362,0.4197,0.4877,0.4877,0.4877,0,0.3916,0.3942,0.3997,0.4078,0.4118,0.4157,0.4279,0.4318,0.4457,0.4532,0.4679,0.4766,0.4912,0.495,0.5026,0.5032,0.5,0.5,0.4994,0.4552,0.4466,0.4173,0.4167,0.4873,0.4873,0.4873,0.4874,0,0.3805,0.3883,0.3942,0.397,0.4071,0.4134,0.421,0.4315,0.4362,0.4511,0.4561,0.4729,0.4815,0.4866,0.4895,0.497,0.4876,0.4977,0.4572,0.4543,0.4336,0.4282,0.4955,0.4955,0.4955,0.4956,0.4956,0,0.3784,0.3803,0.3895,0.3934,0.3957,0.4023,0.4098,0.4191,0.4303,0.4351,0.4527,0.4585,0.4797,0.4786,0.4828,0.4631,0.4814,0.4542,0.4471,0.4384,0.4339,0.4866,0.4858,0.4951,0.4952,0.4953,0.4954,0,0.368,0.3783,0.3793,0.3893,0.3936,0.3926,0.4066,0.4059,0.4191,0.4269,0.4323,0.4487,0.4467,0.4507,0.454,0.4468,0.4367,0.4218,0.4047,0.3953,0.4076,0.4079,0.3849,0.3834,0.3821,0.381,0.3801,0,0.3624,0.3625,0.3737,0.3748,0.3835,0.3865,0.3878,0.4015,0.4028,0.4197,0.4198,0.4222,0.4173,0.3973,0.3887,0.3723,0.3931,0.3406,0.3529,0.4002,0.3959,0.3983,0.4002,0.3369,0.3357,0.3348,0.334,0,0.3461,0.3536,0.3602,0.3653,0.3686,0.3678,0.3742,0.3738,0.3875,0.3922,0.3961,0.3939,0.3745,0.3495,0.3164,0.3106,0.3439,0.3186,0.3746,0.3603,0.3518,0.3486,0.3529,0.3253,0.3262,0.3268,0.3273,0.3276,0.3337,0.3351,0.3489,0.3526,0.3552,0.352,0.3466,0.349,0.3504,0.349,0.3614,0.3422,0.3331,0.274,0.2585,0.2495,0.2739,0.2717,0.2764,0.2818,0.2716,0.2605,0.215,0.2153,0.2155,0.2156,0.2158,0,0.3169,0.3283,0.3318,0.3404,0.3365,0.3445,0.3374,0.3258,0.3191,0.3111,0.3062,0.2654,0.2369,0.2281,0.2027,0.1912,0.2114,0.185,0.2193,0.2274,0.2348,0.2241,0.1541,0.1538,0.1536,0.1534,0,0,0.3097,0.3164,0.3234,0.3219,0.3257,0.3133,0.3046,0.2894,0.2767,0.2479,0.229,0.2239,0.2212,0.1841,0.177,0.1635,0.1972,0.1584,0.2089,0.2579,0.2652,0.2845,0.2763,0,0,0,0,0]},{"header":{"parameterUnit":"m.s-1","parameterCategory":2,"la1":30.2991,"la2":30.254,"lo1":-89.0895,"lo2":-89.0444,"dy":0.0017,"dx":0.0017,"nx":28,"ny":28,"refTime":"2023-08-14T09:00:00:Z","depth":"2","parameterNumber":3,"parameterNumberName":"V-component_of_CURRENTS"},"data":[0,0,0,0,0,0,0,0,0,0,0,0,0,0,0,0,0,0,0,0,0,0,0,0,0,0,0,0,0,0,0,0,0,0,0,0,0,0,0,0,0,0,0,0,0,0,0,0,0,0,0,0,0,0,0,0,0,0,0.0319,0.032,0,0.0444,0.0445,0.0447,0.0455,0.0453,0.0452,0.045,0.041,0.041,0.0411,0,0,0,0,0,0,0,0,0,0,0,0,0,0.0167,0.0169,0.0318,0.032,0.0321,0.0443,0.0445,0.0447,0.0455,0.0453,0.0452,0.045,0.041,0.041,0.0411,0,0,0,0,0,0,0,0,0,0,0,0,0,0.0257,0.017,0.0318,0.0339,0.0342,0.0443,0.0445,0.0448,0.0456,0.0453,0.0451,0.0449,0.041,0.041,0.0411,0.0459,0,0,0.0412,0.0412,0,0,0,0,0,0,0,0,0.0252,0.0263,0.0335,0.0338,0.0342,0.043,0.0377,0.0443,0.0456,0.0414,0.045,0.0448,0.0402,0.0404,0.0436,0.0457,0.0455,0.0412,0.0413,0.0413,0.0413,0,0,0,0,0,0,0,0.0246,0.0258,0.0369,0.0337,0.0341,0.037,0.038,0.0391,0.0417,0.0417,0.0418,0.0431,0.0403,0.0436,0.0434,0.0455,0.0412,0.0413,0.0413,0.0413,0.0521,0.0523,0,0,0,0,0,0,0.0227,0.0252,0.0365,0.0373,0.0289,0.0374,0.0385,0.0405,0.042,0.0422,0.0433,0.0431,0.0436,0.0434,0.0433,0.0507,0.0413,0.0413,0.0414,0.0518,0.0521,0.0524,0,0,0,0,0,0,0.0224,0.0236,0.036,0.0314,0.0331,0.0379,0.0401,0.0409,0.0455,0.0434,0.0431,0.0472,0.0434,0.0432,0.0427,0.0504,0.0413,0.0414,0.0515,0.0519,0.0523,0.0644,0,0,0,0,0,0,0.0219,0.0235,0.0247,0.0313,0.0333,0.0404,0.0404,0.0413,0.0465,0.0464,0.0467,0.046,0.0432,0.0427,0.0428,0.0503,0.0414,0.0512,0.0517,0.0522,0.0637,0.0652,0.0664,0,0,0,0,0,0.0213,0.0222,0.0247,0.0261,0.0347,0.0404,0.0417,0.0444,0.0469,0.0481,0.0478,0.0461,0.046,0.0428,0.0429,0.0507,0.051,0.0516,0.0521,0.0631,0.0649,0.0664,0,0,0,0,0,0,0.0167,0.0227,0.0254,0.0284,0.0337,0.0404,0.043,0.0467,0.0489,0.0497,0.0475,0.0467,0.05,0.0483,0.0449,0.0553,0.0492,0.0498,0.0575,0.0592,0.0605,0.0642,0.0415,0,0,0,0,0,0.0166,0.0189,0.0256,0.0286,0.0316,0.039,0.0423,0.0456,0.0485,0.0497,0.0498,0.0509,0.0531,0.0537,0.0539,0.0588,0.052,0.0645,0.0659,0.0671,0.0703,0.0641,0.0652,0.0543,0.0543,0.0543,0,0,0.017,0.0197,0.022,0.0278,0.0333,0.0398,0.0404,0.047,0.053,0.0487,0.0549,0.0549,0.0551,0.0599,0.0617,0.0591,0.0658,0.0678,0.0688,0.0714,0.0648,0.0658,0.0667,0.0547,0.0546,0.0546,0,0,0.0165,0.021,0.0225,0.0269,0.0342,0.0414,0.0439,0.0522,0.0556,0.0618,0.0612,0.0654,0.0677,0.0704,0.0721,0.0818,0.0726,0.0827,0.0936,0.0876,0.0884,0.089,0.0774,0.0769,0.0842,0.0842,0.0842,0,0.0161,0.0207,0.024,0.0263,0.0333,0.0428,0.0498,0.0554,0.0622,0.0669,0.0641,0.0747,0.0743,0.0837,0.0877,0.0856,0.077,0.0871,0.0892,0.0897,0.0901,0.0781,0.0774,0.0848,0.0848,0.0847,0.0846,0,0.0173,0.022,0.0241,0.0326,0.0392,0.0477,0.0571,0.0652,0.0733,0.0786,0.0881,0.0884,0.0958,0.0972,0.096,0.103,0.0937,0.0904,0.0845,0.0919,0.0787,0.0777,0.0858,0.0855,0.0854,0.0852,0,0,0.0158,0.0239,0.0254,0.0318,0.0452,0.0522,0.0648,0.0796,0.0899,0.0953,0.1069,0.1134,0.1159,0.1182,0.1181,0.1148,0.1099,0.1055,0.1048,0.093,0.0906,0.0825,0.0804,0.1047,0.1048,0.1048,0.0784,0,0.0185,0.0237,0.03,0.044,0.0504,0.0649,0.076,0.0891,0.0998,0.1114,0.117,0.1264,0.123,0.1293,0.126,0.1142,0.1086,0.1171,0.0862,0.0852,0.0764,0.0797,0.0812,0.0579,0.0774,0.0772,0.0771,0,0.0189,0.0234,0.0344,0.0517,0.0569,0.0691,0.0943,0.1047,0.1215,0.1279,0.1391,0.1428,0.1471,0.1415,0.1242,0.1283,0.113,0.1007,0.0993,0.088,0.0757,0.0546,0.0552,0.0753,0.0754,0.0756,0.0757,0,0.0187,0.0287,0.0397,0.045,0.0644,0.0774,0.0927,0.111,0.1231,0.1408,0.1488,0.1531,0.1571,0.1399,0.1187,0.1212,0.0911,0.0908,0.068,0.0668,0.0609,0.0593,0.078,0.078,0.0781,0.0782,0.0783,0,0.0223,0.0318,0.0404,0.0499,0.0671,0.0783,0.1014,0.1167,0.1355,0.1519,0.1578,0.1675,0.1569,0.1417,0.1191,0.0876,0.0902,0.0706,0.0614,0.0646,0.0638,0.0749,0.0749,0.0772,0.0774,0.0776,0.0778,0,0.0244,0.0302,0.0424,0.0608,0.0693,0.0815,0.1108,0.1229,0.1392,0.161,0.1685,0.1766,0.1579,0.1348,0.1057,0.0885,0.0585,0.046,0.048,0.04,0.038,0.039,0.0228,0.0223,0.0219,0.0216,0.0213,0,0.0264,0.0304,0.0497,0.0583,0.0706,0.0893,0.1034,0.1258,0.1399,0.166,0.1749,0.1705,0.1646,0.1127,0.0829,0.039,0.0409,0.0172,0.0282,0.0407,0.0333,0.0349,0.0363,0.0212,0.0209,0.0207,0.0206,0,0.0273,0.0334,0.0464,0.0651,0.0806,0.0961,0.1197,0.1308,0.1573,0.1735,0.1896,0.1869,0.1475,0.1092,0.0545,0.0296,0.0257,0.012,0.0222,0.0372,0.0377,0.031,0.0327,0.0187,0.0189,0.019,0.0191,0.0192,0.0284,0.0355,0.0527,0.0722,0.0901,0.1078,0.1212,0.1401,0.1642,0.1877,0.1889,0.1788,0.1437,0.069,0.0341,0.0056,0.0084,0.0001,0.0014,0.0027,0.0096,0.0097,-0.0138,-0.0138,-0.0138,-0.0138,-0.0138,0,0.0277,0.0416,0.0581,0.0865,0.1061,0.116,0.1364,0.1466,0.1713,0.1789,0.1879,0.1474,0.1035,0.0636,0.0193,-0.0076,-0.0024,-0.0137,-0.0005,0.0011,0.0026,0.0103,-0.0134,-0.0134,-0.0134,-0.0134,0,0,0.0287,0.045,0.0569,0.0945,0.1162,0.1403,0.149,0.1616,0.1679,0.1701,0.1624,0.1432,0.0991,0.0665,0.0315,0.0103,0.0139,0.0071,0.0082,0.0294,0.0314,0.0101,0.0234,0,0,0,0,0]}],[{"header":{"parameterUnit":"m.s-1","parameterCategory":2,"la1":30.2991,"la2":30.254,"lo1":-89.0895,"lo2":-89.0444,"dy":0.0017,"dx":0.0017,"nx":28,"ny":28,"refTime":"2023-08-14T09:00:00:Z","depth":"4","parameterNumber":2,"parameterNumberName":"U-component_of_CURRENTS"},"data":[0,0,0,0,0,0,0,0,0,0,0,0,0,0,0,0,0,0,0,0,0,0,0,0,0,0,0,0,0,0,0,0,0,0,0,0,0,0,0,0,0,0,0,0,0,0,0,0,0,0,0,0,0,0,0,0,0,0,0.0594,0.0592,0,0.0779,0.0786,0.0793,0.1096,0.1096,0.1096,0.1097,0.126,0.1263,0.1267,0,0,0,0,0,0,0,0,0,0,0,0,0,0.0917,0.0912,0.0595,0.0592,0.0589,0.0778,0.0786,0.0794,0.1096,0.1096,0.1096,0.1097,0.1258,0.1263,0.1268,0,0,0,0,0,0,0,0,0,0,0,0,0,0.096,0.091,0.0595,0.072,0.0729,0.0776,0.0787,0.0796,0.1096,0.1096,0.1097,0.1097,0.1257,0.1262,0.1268,0.1296,0,0,0.1287,0.129,0,0,0,0,0,0,0,0,0.0957,0.0955,0.0704,0.0711,0.072,0.0865,0.0957,0.0942,0.1095,0.1017,0.1097,0.1097,0.1087,0.1108,0.1223,0.1303,0.131,0.1287,0.1291,0.1294,0.1295,0,0,0,0,0,0,0,0.0953,0.0951,0.0726,0.07,0.0709,0.0904,0.0914,0.0963,0.1091,0.1024,0.1032,0.0961,0.11,0.1217,0.1228,0.1313,0.1287,0.1293,0.1296,0.1299,0.1521,0.1523,0,0,0,0,0,0,0.0791,0.0944,0.0719,0.0725,0.0778,0.0892,0.0906,0.0865,0.1091,0.111,0.096,0.0973,0.1207,0.1221,0.1234,0.1248,0.1294,0.1299,0.1303,0.1519,0.1521,0.1524,0,0,0,0,0,0,0.0799,0.0771,0.071,0.0794,0.0792,0.0876,0.0835,0.0866,0.101,0.1032,0.1064,0.1064,0.1208,0.1225,0.1358,0.1256,0.1302,0.1308,0.1516,0.1519,0.1523,0.1293,0,0,0,0,0,0,0.0809,0.0775,0.0786,0.0782,0.0778,0.068,0.0828,0.0868,0.0934,0.0958,0.1129,0.1145,0.1209,0.135,0.1365,0.1265,0.1312,0.1513,0.1517,0.1521,0.1298,0.1288,0.128,0,0,0,0,0,0.0821,0.0705,0.0787,0.076,0.076,0.067,0.0696,0.0799,0.0938,0.0956,0.1162,0.1142,0.1384,0.1359,0.1375,0.1274,0.1511,0.1516,0.1521,0.1302,0.129,0.128,0,0,0,0,0,0,0.0745,0.072,0.081,0.0676,0.0669,0.0698,0.071,0.0812,0.1009,0.1095,0.1203,0.1231,0.1281,0.1364,0.1333,0.1368,0.1429,0.1438,0.1257,0.1247,0.1238,0.1325,0.1317,0,0,0,0,0,0.0748,0.0743,0.0696,0.0603,0.0601,0.0708,0.0724,0.0799,0.0895,0.0994,0.1092,0.1238,0.1315,0.1356,0.1432,0.1476,0.1528,0.1426,0.1416,0.1407,0.1501,0.1521,0.1519,0.1541,0.1541,0.154,0,0,0.0679,0.0664,0.0657,0.0604,0.0658,0.0671,0.0736,0.073,0.0798,0.0966,0.1131,0.1198,0.1329,0.1372,0.1397,0.1426,0.1406,0.1414,0.1403,0.1506,0.1525,0.1522,0.152,0.1544,0.1543,0.1543,0,0,0.0558,0.0547,0.0571,0.0575,0.0596,0.0637,0.0627,0.0692,0.0791,0.0909,0.1049,0.1092,0.1235,0.1279,0.1331,0.1334,0.1351,0.1339,0.1356,0.1366,0.1363,0.1362,0.1294,0.1289,0.1337,0.1337,0.1336,0,0.0527,0.0517,0.0538,0.0563,0.0559,0.062,0.0643,0.0723,0.0835,0.0912,0.0926,0.1157,0.1179,0.1269,0.1282,0.1288,0.1339,0.1348,0.1344,0.1345,0.1348,0.1281,0.1278,0.1326,0.1328,0.1329,0.133,0,0.0469,0.049,0.045,0.057,0.057,0.054,0.0598,0.0674,0.0774,0.0852,0.0946,0.1016,0.117,0.11,0.1211,0.1238,0.1272,0.13,0.1339,0.1329,0.1261,0.1261,0.1311,0.1315,0.1318,0.1321,0,0,0.0345,0.0429,0.0436,0.0524,0.0581,0.0558,0.0647,0.0719,0.0835,0.0877,0.099,0.1033,0.1101,0.1181,0.1226,0.1227,0.1165,0.1316,0.1321,0.1196,0.1188,0.1147,0.1143,0.1225,0.1227,0.1229,0.1082,0,0.0343,0.0388,0.0437,0.0498,0.0525,0.061,0.0684,0.0779,0.0861,0.0969,0.0996,0.1117,0.1121,0.1201,0.1194,0.1186,0.119,0.1204,0.1276,0.1278,0.1197,0.1152,0.1236,0.1083,0.1083,0.1083,0.1084,0,0.0323,0.0363,0.0419,0.0533,0.056,0.0633,0.0784,0.0864,0.101,0.1085,0.1188,0.1258,0.1273,0.1294,0.1248,0.1288,0.13,0.1255,0.1247,0.1334,0.1245,0.1143,0.1086,0.1086,0.1086,0.1086,0.1085,0,0.0257,0.0348,0.04,0.0427,0.0559,0.0666,0.0774,0.0931,0.1031,0.1213,0.1286,0.1332,0.1373,0.1359,0.1297,0.1315,0.1238,0.1198,0.1162,0.1152,0.1327,0.1333,0.1266,0.1266,0.1266,0.1267,0.1267,0,0.021,0.0251,0.0406,0.0432,0.0566,0.0686,0.0863,0.0989,0.1167,0.124,0.1389,0.1421,0.1432,0.1391,0.1323,0.1216,0.1242,0.1195,0.1143,0.1218,0.1214,0.1317,0.1325,0.1261,0.1262,0.1264,0.1265,0,0.0127,0.0205,0.0281,0.0459,0.0543,0.0664,0.093,0.1044,0.1227,0.1327,0.1398,0.1497,0.1419,0.1381,0.1301,0.1235,0.1126,0.1136,0.1177,0.1125,0.1008,0.1007,0.0994,0.0992,0.099,0.0989,0.0988,0,0.0096,0.0117,0.0295,0.0386,0.0499,0.0704,0.0847,0.1074,0.1145,0.1302,0.1293,0.1374,0.1393,0.1208,0.1183,0.1047,0.1093,0.104,0.1091,0.1045,0.0995,0.0997,0.0998,0.0985,0.0985,0.0984,0.0984,0,0.0025,0.0085,0.0152,0.0341,0.0517,0.0676,0.0868,0.0903,0.1081,0.1223,0.1225,0.1256,0.1203,0.1125,0.1127,0.1016,0.103,0.1022,0.1025,0.1072,0.1034,0.0986,0.0989,0.0978,0.0979,0.098,0.098,0,-0.0012,0.0013,0.0122,0.0298,0.0484,0.0611,0.0723,0.082,0.0936,0.1064,0.1018,0.1083,0.1147,0.1108,0.1016,0.0988,0.0963,0.0939,0.0946,0.0952,0.1018,0.0969,0.0869,0,0,0,0,0,-0.004,-0.0028,0.0091,0.0269,0.0442,0.057,0.0707,0.0787,0.0881,0.0867,0.0968,0.0919,0.0926,0.0943,0.0895,0.0938,0.0926,0.0877,0.0893,0.0946,0.0953,0.104,0,0,0,0,0,0,-0.0057,-0.001,0.0044,0.0221,0.0339,0.053,0.0616,0.068,0.0669,0.0758,0.0758,0.0877,0.0869,0.0944,0.0884,0.0885,0.088,0.0921,0.0919,0.0942,0.0948,0.0954,0.1046,0,0,0,0,0]},{"header":{"parameterUnit":"m.s-1","parameterCategory":2,"la1":30.2991,"la2":30.254,"lo1":-89.0895,"lo2":-89.0444,"dy":0.0017,"dx":0.0017,"nx":28,"ny":28,"refTime":"2023-08-14T09:00:00:Z","depth":"4","parameterNumber":3,"parameterNumberName":"V-component_of_CURRENTS"},"data":[0,0,0,0,0,0,0,0,0,0,0,0,0,0,0,0,0,0,0,0,0,0,0,0,0,0,0,0,0,0,0,0,0,0,0,0,0,0,0,0,0,0,0,0,0,0,0,0,0,0,0,0,0,0,0,0,0,0,-0.0166,-0.0166,0,-0.0223,-0.0225,-0.0226,-0.0279,-0.0279,-0.0279,-0.0279,-0.0279,-0.0279,-0.0279,0,0,0,0,0,0,0,0,0,0,0,0,0,-0.0171,-0.0171,-0.0166,-0.0166,-0.0166,-0.0223,-0.0225,-0.0226,-0.0279,-0.0279,-0.0279,-0.0279,-0.0279,-0.0279,-0.0279,0,0,0,0,0,0,0,0,0,0,0,0,0,-0.0199,-0.0171,-0.0166,-0.0194,-0.0197,-0.0223,-0.0225,-0.0227,-0.0279,-0.0279,-0.0279,-0.0279,-0.0279,-0.0279,-0.0279,-0.0279,0,0,-0.0279,-0.0279,0,0,0,0,0,0,0,0,-0.0197,-0.02,-0.019,-0.0192,-0.0195,-0.0238,-0.0226,-0.0239,-0.0279,-0.0255,-0.0279,-0.0279,-0.0255,-0.0257,-0.0279,-0.0279,-0.0279,-0.0279,-0.0279,-0.0279,-0.0279,0,0,0,0,0,0,0,-0.0195,-0.0198,-0.0196,-0.019,-0.0193,-0.0227,-0.0231,-0.023,-0.0259,-0.0257,-0.0259,-0.0255,-0.0257,-0.0279,-0.0279,-0.0279,-0.0279,-0.0279,-0.0279,-0.0279,-0.0313,-0.0314,0,0,0,0,0,0,-0.017,-0.0196,-0.0194,-0.0197,-0.0188,-0.0226,-0.0231,-0.023,-0.026,-0.0263,-0.0254,-0.0257,-0.0279,-0.0279,-0.0279,-0.0322,-0.0279,-0.0279,-0.0279,-0.0313,-0.0314,-0.0315,0,0,0,0,0,0,-0.017,-0.017,-0.0192,-0.0192,-0.0196,-0.0225,-0.0224,-0.0231,-0.027,-0.0257,-0.0261,-0.0287,-0.0279,-0.0279,-0.0287,-0.032,-0.0279,-0.0279,-0.0311,-0.0313,-0.0314,-0.0381,0,0,0,0,0,0,-0.017,-0.017,-0.0166,-0.019,-0.0195,-0.0183,-0.0223,-0.0232,-0.0262,-0.0266,-0.0286,-0.0285,-0.0279,-0.0287,-0.0287,-0.032,-0.0279,-0.031,-0.0312,-0.0314,-0.0378,-0.0385,-0.0391,0,0,0,0,0,-0.0171,-0.0123,-0.0165,-0.0165,-0.0187,-0.0181,-0.0187,-0.0213,-0.0264,-0.0257,-0.0292,-0.0285,-0.0298,-0.0287,-0.0287,-0.0321,-0.0309,-0.0312,-0.0314,-0.0375,-0.0383,-0.039,0,0,0,0,0,0,-0.0096,-0.0125,-0.0171,-0.0132,-0.0158,-0.0186,-0.0172,-0.0226,-0.0257,-0.0272,-0.0292,-0.0292,-0.0332,-0.0303,-0.0291,-0.0335,-0.0305,-0.0307,-0.0352,-0.036,-0.0366,-0.0355,-0.0279,0,0,0,0,0,-0.0088,-0.0085,-0.0117,-0.0095,-0.01,-0.016,-0.0169,-0.0202,-0.0227,-0.0245,-0.0271,-0.0297,-0.0339,-0.0328,-0.0352,-0.035,-0.0325,-0.0372,-0.0379,-0.0384,-0.0375,-0.0386,-0.0392,-0.0322,-0.0321,-0.0321,0,0,-0.0048,-0.0071,-0.0065,-0.0084,-0.011,-0.0099,-0.0165,-0.0172,-0.0187,-0.0236,-0.0262,-0.0334,-0.0352,-0.038,-0.039,-0.0353,-0.0387,-0.0387,-0.0392,-0.0379,-0.0389,-0.0395,-0.0401,-0.0323,-0.0323,-0.0322,0,0,0.0036,0.0003,0.003,0.0015,-0.0022,-0.0058,-0.0067,-0.012,-0.0162,-0.0196,-0.0274,-0.0355,-0.0364,-0.0413,-0.0433,-0.0477,-0.0449,-0.0492,-0.0483,-0.0495,-0.05,-0.0505,-0.0464,-0.0465,-0.0461,-0.0461,-0.0461,0,0.0088,0.0087,0.0044,0.0066,0.005,-0.0039,-0.0025,-0.006,-0.0122,-0.0175,-0.019,-0.0342,-0.0378,-0.0454,-0.0493,-0.0494,-0.0475,-0.0457,-0.0503,-0.0508,-0.0512,-0.0468,-0.0468,-0.0465,-0.0464,-0.0464,-0.0464,0,0.0173,0.0173,0.0198,0.017,0.0159,0.0158,0.0101,0.0051,-0.0037,-0.0102,-0.0224,-0.0307,-0.0396,-0.0442,-0.0483,-0.0559,-0.053,-0.054,-0.0485,-0.0523,-0.0474,-0.0473,-0.047,-0.0469,-0.0467,-0.0467,0,0,0.027,0.0258,0.0259,0.0234,0.0193,0.0185,0.0161,0.0085,0.0023,-0.0061,-0.015,-0.0285,-0.0394,-0.0426,-0.0521,-0.0542,-0.0583,-0.0556,-0.0555,-0.0514,-0.0572,-0.0568,-0.0565,-0.0609,-0.061,-0.061,-0.0519,0,0.0326,0.0372,0.0344,0.0353,0.0351,0.0265,0.0243,0.0161,0.0063,-0.0031,-0.0167,-0.0277,-0.0361,-0.0454,-0.0497,-0.0583,-0.0586,-0.0604,-0.0539,-0.0536,-0.053,-0.0567,-0.0612,-0.0518,-0.0518,-0.0518,-0.0517,0,0.0381,0.0388,0.0427,0.0369,0.0362,0.0363,0.0243,0.0208,0.0074,-0.001,-0.0142,-0.0254,-0.0369,-0.0425,-0.0509,-0.0519,-0.0553,-0.0583,-0.058,-0.0551,-0.0532,-0.0476,-0.0514,-0.0515,-0.0515,-0.0515,-0.0515,0,0.04,0.042,0.0432,0.0429,0.039,0.0361,0.0313,0.0199,0.0145,-0.0013,-0.0071,-0.0217,-0.0301,-0.0363,-0.047,-0.0488,-0.0522,-0.0536,-0.054,-0.0537,-0.0535,-0.053,-0.0567,-0.0568,-0.0568,-0.0568,-0.0568,0,0.0417,0.0426,0.0443,0.0451,0.0427,0.0382,0.0324,0.0244,0.0145,0.0074,-0.007,-0.0153,-0.0297,-0.0358,-0.043,-0.0477,-0.0476,-0.0539,-0.0528,-0.0561,-0.0561,-0.0532,-0.0529,-0.0565,-0.0565,-0.0566,-0.0567,0,0.0412,0.0438,0.0453,0.0445,0.044,0.0411,0.0361,0.0311,0.022,0.0128,0.0082,-0.0081,-0.0176,-0.0272,-0.0372,-0.0413,-0.0463,-0.0478,-0.0469,-0.0458,-0.0463,-0.0465,-0.0441,-0.0441,-0.044,-0.044,-0.044,0,0.0405,0.0427,0.0464,0.0467,0.0463,0.0433,0.0408,0.0339,0.0285,0.0162,0.0116,0.0003,-0.0116,-0.0201,-0.0327,-0.0396,-0.0435,-0.042,-0.0494,-0.0467,-0.0457,-0.0459,-0.0462,-0.0439,-0.0439,-0.0439,-0.0438,0,0.0386,0.0425,0.0439,0.0465,0.0464,0.0447,0.0404,0.0381,0.0282,0.0254,0.0138,0.0032,-0.0071,-0.0199,-0.026,-0.0329,-0.0412,-0.0416,-0.0418,-0.0486,-0.0463,-0.0455,-0.0457,-0.0437,-0.0437,-0.0437,-0.0437,0,0.0375,0.0383,0.0428,0.0432,0.0446,0.0415,0.0402,0.0348,0.031,0.0199,0.0169,0.0032,-0.0044,-0.0163,-0.0227,-0.0289,-0.0314,-0.0325,-0.0332,-0.0335,-0.0366,-0.0325,-0.0243,0,0,0,0,0,0.0355,0.0365,0.0379,0.0377,0.0394,0.0403,0.0374,0.0355,0.0307,0.0246,0.0207,0.0102,-0.0038,-0.0119,-0.0175,-0.0237,-0.0336,-0.0306,-0.0355,-0.0427,-0.0429,-0.0489,0,0,0,0,0,0,0.0334,0.0362,0.0371,0.034,0.0334,0.0334,0.0323,0.0292,0.0248,0.0207,0.0135,0.0116,-0.0021,0.0011,-0.0165,-0.0191,-0.0225,-0.0365,-0.0366,-0.0426,-0.0428,-0.043,-0.0492,0,0,0,0,0]}]]